User: anonymous   Login
Location: Unspecified
(0.0000°N, 0.0000°E)
Time: 10:08:20
(UTC+00:00)
Language:

SRMSAT - Orbit

View from above orbital plane
View from above orbital plane
View from above satellite
View from above satellite

Ground track
Ground track

The orbit data is extracted from the following two-line orbital elements,

1 37841U 11058D   24111.20155426  .00000828  00000-0  30862-3 0  9992
2 37841  19.9711 147.4863 0011802 176.0939 236.9161 14.11079962646580
Epoch (UTC): 20 April 2024 04:50:14
Eccentricity: 0.0011802
inclination: 19.9711°
perigee height: 847 km
apogee height: 864 km
right ascension of ascending node: 147.4863°
argument of perigee: 176.0939°
revolutions per day: 14.11079962
mean anomaly at epoch: 236.9161°
orbit number at epoch: 64658

The dashed part of the orbit path shows where the satellite is in the earth's shadow,  

DLR